Location: Majorville
(50.6333°N, 112.7000°W)
Time: 06:19:43
(UTC+00:00)

Envisat - Visible Passes

Search period start: 27 November 2021 00:00
Search period end: 07 December 2021 00:00
Orbit: 764 x 766 km, 98.2° (Epoch: 26 November)

Date Brightness Start Highest point End Pass type
(mag) Time Alt. Az. Time Alt. Az. Time Alt. Az.
27 Nov 6.0 01:12:51 10° WSW 01:15:27 14° W 01:18:05 10° NW visible
27 Nov 5.2 11:35:03 10° NE 11:39:05 23° E 11:43:05 10° SE visible
27 Nov 3.0 13:13:28 10° N 13:18:29 58° WNW 13:23:27 10° SSW visible
28 Nov 5.3 00:33:50 10° SSW 00:38:09 28° W 00:42:29 10° NW visible
28 Nov 6.1 11:00:06 10° ENE 11:01:42 11° E 11:03:18 10° ESE visible
28 Nov 3.2 12:36:32 10° NNE 12:41:39 73° ESE 12:46:43 10° S visible
28 Nov 4.2 14:16:27 10° N 14:20:09 21° WNW 14:23:51 10° WSW visible
29 Nov 4.4 11:59:54 10° NNE 12:04:37 37° E 12:09:18 10° SSE visible
29 Nov 3.5 13:39:00 10° N 13:43:39 37° WNW 13:48:16 10° SW visible
30 Nov 5.9 01:00:25 10° SW 01:03:44 17° W 01:07:05 10° NW visible
30 Nov 5.5 11:23:49 10° NE 11:27:24 19° E 11:30:56 10° SE visible
30 Nov 2.9 13:01:52 10° N 13:06:57 71° WNW 13:12:00 10° SSW visible
01 Dec 4.9 00:21:54 10° SSW 00:26:29 34° W 00:31:07 10° NNW visible
01 Dec 3.5 12:25:01 10° NNE 12:30:03 59° E 12:35:04 10° S visible
01 Dec 4.0 14:04:40 10° N 14:08:44 25° WNW 14:12:46 10° WSW visible
02 Dec 6.4 01:28:47 10° W 01:29:27 10° W 01:30:08 10° WNW visible
02 Dec 4.8 11:48:31 10° NNE 11:52:59 30° E 11:57:25 10° SSE visible
02 Dec 3.2 13:27:19 10° N 13:32:10 45° WNW 13:36:58 10° SW visible
03 Dec 5.7 00:48:13 10° SW 00:52:03 21° W 00:55:54 10° NW visible
03 Dec 5.8 11:12:45 10° NE 11:15:41 15° E 11:18:37 10° ESE visible
03 Dec 2.9 12:50:17 10° NNE 12:55:24 86° WNW 13:00:30 10° SSW visible
03 Dec 4.4 14:30:36 10° NNW 14:33:43 17° NW 14:36:50 10° W visible
04 Dec 4.5 00:10:04 10° SSW 00:14:52 41° W 00:19:41 10° NNW visible
04 Dec 3.9 12:13:31 10° NNE 12:18:28 48° E 12:23:21 10° S visible
04 Dec 3.8 13:52:55 10° N 13:57:17 29° WNW 14:01:37 10° WSW visible
05 Dec 6.1 01:15:22 10° WSW 01:17:42 13° W 01:20:03 10° WNW visible
05 Dec 5.1 11:37:10 10° NE 11:41:19 24° E 11:45:25 10° SE visible
05 Dec 3.0 13:15:41 10° N 13:20:39 55° WNW 13:25:36 10° SW visible
06 Dec 5.4 00:36:09 10° SSW 00:40:22 26° W 00:44:37 10° NW visible
06 Dec 6.0 11:01:56 10° ENE 11:03:57 12° E 11:05:58 10° ESE visible
06 Dec 3.1 12:38:43 10° NNE 12:43:51 78° ESE 12:48:55 10° S visible
06 Dec 4.2 14:18:44 10° NNW 14:22:19 20° WNW 14:25:53 10° WSW visible
